Sarasota, FL

9:56 PM EST on December 15, 2019 (GMT -0500)
Sarasota-bradenton

Weather History for KSRQ - September, 2019

Change the Weather History Date:

Monday, September 2, 2019

  Actual Average Record
Temperature  
Mean Temperature 86 °F 82 °F  
Max Temperature 91 °F 90 °F 95 °F (1962)
Min Temperature 80 °F 75 °F 63 °F (1960)
Degree Days  
Heating Degree Days 0 0  
Month to date heating degree days 0 0  
Since 1 July heating degree days 0 0  
Cooling Degree Days 21 17  
Month to date cooling degree days 43 34  
Year to date cooling degree days 2901 2331  
Growing Degree Days 36 (Base 50)    
Moisture  
Dew Point 76 °F    
Average Humidity 77    
Maximum Humidity 91    
Minimum Humidity 60    
Precipitation  
Precipitation 0.03 in 0.34 in 3.24 in (1963)
Month to date precipitation 0.16 0.68  
Year to date precipitation 41.55 39.01  
Sea Level Pressure  
Sea Level Pressure 29.82 in    
Wind  
Wind Speed 7 mph ()    
Max Wind Speed 23 mph    
Max Gust Speed 33 mph    
Visibility 10.0 miles    
Events      
T = Trace of Precipitation, MM = Missing Value Source: Averaged Metar Reports

Daily Weather History Graph

Daily Weather History Graph

Search for Another Location

Airport or City:

Astronomy

Sep. 02, 2019 Rise Set
Actual Time 7:09 AM EDT 7:49 PM EDT
Civil Twilight 6:45 AM EDT 8:13 PM EDT
Nautical Twilight 6:18 AM EDT 8:41 PM EDT
Astronomical Twilight 5:49 AM EDT 9:09 PM EDT
Moon 10:33 AM EDT (9/2) 10:31 PM EDT (9/2)
Length of Visible Light 13h 27m
Length of Day
12h 40m
Waxing Crescent, 15% of the Moon is Illuminated
Sep 2
Waxing Crescent
Sep 5
First Quarter
Sep 14
Full
Sep 21
Last Quarter
Sep 28
New

Hourly Weather History & Observations

Time (EDT) Temp. Heat Index Dew Point Humidity Pressure Visibility Wind Dir Wind Speed Gust Speed Precip Events Conditions
12:53 AM 80.1 °F 85.4 °F 75.9 °F 87% 29.86 in 10.0 mi NNE 3.5 mph - N/A   Clear
1:53 AM 80.1 °F 85.4 °F 75.9 °F 87% 29.86 in 10.0 mi NNE 4.6 mph - N/A   Clear
2:53 AM 80.1 °F 85.4 °F 75.9 °F 87% 29.83 in 10.0 mi NNE 6.9 mph - N/A   Clear
3:53 AM 80.1 °F 85.4 °F 75.9 °F 87% 29.81 in 10.0 mi NE 6.9 mph - N/A   Clear
4:53 AM 80.1 °F 85.4 °F 75.9 °F 87% 29.81 in 10.0 mi NNE 5.8 mph - N/A   Clear
5:53 AM 80.1 °F 85.4 °F 75.9 °F 87% 29.82 in 10.0 mi North 4.6 mph - N/A   Clear
6:53 AM 80.1 °F 85.4 °F 75.9 °F 87% 29.82 in 10.0 mi North 5.8 mph - N/A   Clear
7:53 AM 81.0 °F 87.9 °F 77.0 °F 88% 29.83 in 10.0 mi North 6.9 mph - N/A   Clear
8:29 AM 82.0 °F 90.2 °F 77.0 °F 85% 29.84 in 10.0 mi North 6.9 mph 18.4 mph N/A   Mostly Cloudy
8:53 AM 84.0 °F 93.7 °F 77.0 °F 79% 29.85 in 10.0 mi Variable 5.8 mph - N/A   Mostly Cloudy
9:53 AM 84.9 °F 95.3 °F 77.0 °F 77% 29.86 in 10.0 mi NNE 10.4 mph 16.1 mph N/A   Mostly Cloudy
10:00 AM 84.9 °F 95.3 °F 77.0 °F 77% 29.86 in 10.0 mi NNE 10.4 mph - N/A   Mostly Cloudy
10:53 AM 88.0 °F 100.2 °F 77.0 °F 70% 29.85 in 10.0 mi NNE 9.2 mph 19.6 mph N/A   Mostly Cloudy
11:00 AM 88.0 °F 100.2 °F 77.0 °F 70% 29.85 in 10.0 mi North 9.2 mph - N/A   Scattered Clouds
11:53 AM 87.1 °F 97.3 °F 75.9 °F 69% 29.84 in 10.0 mi North 9.2 mph - N/A   Scattered Clouds
12:53 PM 90.0 °F 104.5 °F 78.1 °F 68% 29.82 in 10.0 mi North 9.2 mph 18.4 mph 0.00 in   Scattered Clouds
1:53 PM 91.0 °F 102.9 °F 75.9 °F 61% 29.81 in 10.0 mi North 16.1 mph 23.0 mph 0.00 in   Scattered Clouds
2:53 PM 86.0 °F 95.1 °F 75.0 °F 70% 29.80 in 10.0 mi North 15.0 mph 20.7 mph 0.03 in   Partly Cloudy
3:53 PM 86.0 °F 95.1 °F 75.0 °F 70% 29.77 in 10.0 mi North 15.0 mph 21.9 mph N/A   Scattered Clouds
4:53 PM 84.9 °F 94.1 °F 75.9 °F 74% 29.76 in 10.0 mi NNW 9.2 mph - N/A   Scattered Clouds
5:53 PM 88.0 °F 98.5 °F 75.9 °F 67% 29.76 in 10.0 mi North 15.0 mph - N/A   Clear
6:53 PM 88.0 °F 96.5 °F 73.9 °F 63% 29.77 in 10.0 mi North 13.8 mph 23.0 mph N/A   Partly Cloudy
7:53 PM 84.9 °F 93.3 °F 75.0 °F 72% 29.78 in 10.0 mi NNE 6.9 mph - N/A   Clear
8:53 PM 84.0 °F 91.9 °F 75.0 °F 74% 29.78 in 10.0 mi North 6.9 mph - N/A   Clear
9:53 PM 84.0 °F 91.9 °F 75.0 °F 74% 29.80 in 10.0 mi North 11.5 mph - N/A   Clear
10:53 PM 82.9 °F 90.2 °F 75.0 °F 77% 29.81 in 10.0 mi North 9.2 mph - N/A   Clear
11:53 PM 82.9 °F 89.4 °F 73.9 °F 74% 29.79 in 10.0 mi NNE 11.5 mph - N/A   Clear